Wetbulb
55.98 55.99 55.29 54.11 53.71 52.77 51.81 50.88 48.59 45.43 47.34 49.91 52.02 54.92 56.49 57.17 57.16 58.00 58.78 55.66 57.00 58.00 59.10 59.32 59.04 59.07 59.55 60.00 59.92 59.93 59.76 59.26 58.63 57.65 56.13 54.72 53.41 52.41
55.77 55.65 55.51 54.42 54.12 53.07 51.99 51.14 50.18 48.24 45.90 49.23 49.70 52.42 55.97 57.00 56.04 57.24 56.85 53.87 55.16 57.17 57.43 56.93 57.12 57.45 57.69 58.27 58.54 58.61 58.56 58.43 58.72 58.34 57.14 55.84 54.38 52.59
55.87 55.40 55.07 54.56 53.61 52.78 51.66 51.33 50.78 49.55 47.42 48.31 49.71 50.73 51.60 53.56 54.32 54.74 54.76 54.74 54.31 55.02 56.93 56.81 56.42 56.29 56.44 56.63 57.02 57.36 57.49 57.90 58.05 58.40 57.84 56.62 55.11 53.32
55.51 55.77 55.29 54.36 53.55 53.05 52.75 51.69 51.89 50.98 49.63 48.83 49.69 49.03 50.36 50.39 52.27 53.38 54.46 55.39 54.42 54.03 55.32 55.81 55.80 55.70 55.68 55.70 55.68 55.79 55.77 55.87 56.59 56.96 57.25 56.87 55.03 53.47
55.87 55.62 56.16 55.40 54.05 52.79 52.78 51.63 51.90 52.20 52.30 49.94 49.84 50.48 50.72 49.02 48.92 47.77 48.51 49.61 52.22 51.54 54.17 54.49 55.29 55.41 55.19 55.03 54.86 54.74 54.15 54.11 54.43 54.19 54.95 55.11 53.88 52.56
56.40 56.19 56.07 55.67 55.31 53.65 53.19 52.28 51.50 50.72 50.80 50.96 49.21 48.98 49.16 49.30 48.46 49.25 45.69 46.07 49.60 50.56 50.47 51.59 52.95 53.39 54.15 54.58 53.72 52.52 52.12 52.76 53.78 53.81 53.12 51.82 51.23 51.27
56.36 55.98 56.17 54.04 51.45 53.81 54.05 52.93 52.01 51.54 49.99 49.72 48.71 48.53 48.71 46.22 46.88 45.26 46.20 44.87 46.96 48.14 47.73 47.75 48.13 47.32 48.54 50.94 50.42 50.33 51.06 51.95 52.39 52.63 52.36 51.17 49.73 49.19
55.41 55.42 55.33 50.14 51.16 51.29 51.32 51.44 52.52 51.22 50.72 49.94 50.00 49.38 49.64 49.61 46.20 46.01 46.66 44.80 44.10 47.12 45.85 46.29 46.59 45.44 45.76 46.73 49.94 51.03 50.78 51.17 51.29 51.32 51.07 50.05 48.22 47.15
55.81 55.19 54.50 54.12 51.49 53.02 50.96 50.54 50.12 50.31 51.48 51.54 50.45 49.92 49.80 49.39 48.41 45.71 45.73 45.59 45.75 45.77 44.79 42.65 43.73 42.19 43.52 44.95 47.82 49.04 49.84 50.04 50.13 50.11 49.21 47.96 46.92 46.33
55.74 55.46 54.77 53.35 52.88 52.61 52.40 51.49 51.53 51.19 51.27 51.38 51.92 51.27 49.83 49.95 49.07 49.22 47.69 46.34 43.74 43.59 44.14 40.75 40.41 40.97 40.39 40.27 43.85 47.00 49.36 49.35 49.05 48.65 47.87 47.08 46.56 46.65
54.22 54.34 54.68 53.77 51.16 50.10 51.93 50.94 50.82 50.75 49.41 48.70 48.66 48.71 48.33 48.79 49.17 47.66 44.40 42.45 40.70 40.45 41.22 41.07 37.92 38.12 37.12 36.70 37.00 40.58 42.80 47.68 48.09 47.74 47.36 46.84 46.55 46.34
51.29 51.82 49.61 51.96 48.46 49.06 51.91 50.36 48.50 48.93 48.32 47.49 47.96 47.47 47.78 48.28 47.33 48.39 45.84 42.45 38.47 37.92 39.32 39.64 34.91 35.58 32.63 33.34 33.15 34.97 36.20 41.00 46.28 47.13 46.97 47.09 46.64 42.68
50.07 49.69 50.52 48.51 47.92 48.05 49.81 50.20 49.56 48.61 47.81 47.47 46.93 46.73 46.28 46.60 46.06 46.08 44.85 43.28 38.28 38.34 39.20 37.91 32.04 32.79 33.84 32.97 31.76 32.72 34.02 36.00 37.74 43.68 46.97 46.86 45.87 39.89
48.68 49.20 49.59 47.02 46.64 46.73 47.74 48.48 47.51 47.20 46.62 44.87 41.77 40.77 41.03 41.35 38.81 38.71 38.07 36.80 36.90 38.84 39.96 37.13 33.40 34.71 33.91 31.86 32.11 31.20 32.02 33.29 34.35 35.36 36.13 42.03 43.89 41.82
48.73 47.63 46.82 45.97 46.08 46.02 46.31 46.37 46.35 45.59 42.26 37.90 37.71 35.69 34.35 35.12 33.32 32.40 32.44 32.51 32.20 32.65 34.37 34.83 34.42 34.04 33.97 33.15 32.19 30.05 30.59 31.53 32.33 32.28 32.20 33.22 32.72 32.13
43.96 45.21 45.92 45.95 45.99 45.45 44.61 44.94 44.71 43.41 40.71 39.95 34.76 32.68 32.27 32.60 32.14 32.62 32.18 32.26 32.38 30.42 30.97 32.78 33.88 33.98 32.64 32.39 32.20 30.10 30.70 30.74 30.14 29.63 29.46 28.86 28.87 28.66
39.67 38.69 37.30 36.32 35.55 35.53 35.10 35.34 35.94 36.41 34.78 32.99 33.20 31.84 31.86 32.23 31.22 32.04 32.20 31.93 32.12 29.98 28.66 29.11 29.75 30.90 31.17 32.01 30.69 30.62 29.42 28.20 28.43 28.14 26.73 25.11 25.91 26.26
34.15 33.09 32.60 33.27 33.00 33.19 33.09 32.81 33.24 33.96 32.52 32.95 32.61 32.50 32.12 31.98 30.81 30.72 31.36 31.88 31.22 29.23 28.33 27.79 28.02 28.69 29.33 29.26 31.59 29.73 28.33 28.21 27.47 26.99 25.33 22.30 22.04 25.81
30.03 30.34 30.64 31.26 31.58 31.84 32.05 32.05 31.71 32.08 32.81 32.58 32.36 32.01 31.98 31.61 31.27 30.47 30.69 30.65 29.28 28.78 28.22 27.75 27.58 28.55 27.58 27.91 26.50 30.05 28.29 26.72 25.95 25.00 24.13 20.74 19.81 24.99
27.57 27.52 28.06 29.60 30.82 31.37 31.67 31.62 31.67 31.74 31.85 31.85 31.81 31.79 31.90 31.72 30.54 30.05 30.01 29.82 29.25 28.43 27.60 27.70 27.52 28.05 28.36 27.66 27.30 23.21 29.16 24.16 22.83 21.43 22.75 23.86 25.43 29.20
25.73 26.16 27.18 27.69 28.36 29.76 31.41 31.69 31.77 31.75 31.82 31.62 31.40 31.65 31.79 31.87 30.82 30.56 30.18 31.38 30.40 28.40 27.71 27.23 28.22 31.00 26.87 26.03 19.83 18.07 22.38 28.28 25.84 21.60 22.35 20.79 21.18 21.65
24.65 25.22 26.15 26.58 26.64 27.39 28.59 30.19 31.32 31.54 31.53 31.51 31.16 31.13 30.98 31.18 30.82 30.41 30.19 29.83 30.22 27.45 25.42 25.81 27.16 25.18 23.79 22.29 19.00 19.07 20.91 23.40 26.14 28.68 28.53 26.47 21.27 17.16
23.43 24.24 24.59 25.17 25.55 26.00 26.70 27.40 28.32 28.97 29.64 30.85 30.66 30.56 30.41 29.64 29.52 29.68 29.94 29.52 28.70 27.40 25.78 23.50 23.51 23.47 22.89 22.61 22.31 19.19 19.76 19.79 21.02 21.61 23.09 27.56 28.93 29.61
MSLP
1017.14 1017.75 1018.56 1019.09 1019.49 1019.77 1020.12 1020.65 1021.61 1023.01 1023.05 1022.92 1022.94 1022.71 1023.06 1023.27 1023.51 1023.92 1024.26 1024.57 1024.76 1024.98 1025.17 1025.30 1025.42 1025.64 1025.89 1026.11 1026.33 1026.63 1026.94 1027.17 1027.48 1027.84 1028.26 1028.61 1028.74 1028.95
1016.37 1016.97 1017.81 1018.41 1018.83 1019.21 1019.54 1019.94 1020.62 1021.64 1022.35 1022.09 1022.30 1022.08 1022.39 1022.69 1022.95 1023.28 1023.53 1023.83 1024.08 1024.36 1024.67 1024.87 1025.08 1025.27 1025.48 1025.65 1025.91 1026.04 1026.18 1026.41 1026.62 1027.04 1027.37 1027.74 1028.19 1028.57
1015.43 1015.95 1016.96 1017.62 1018.13 1018.69 1019.01 1019.51 1020.19 1020.74 1021.46 1021.75 1021.74 1021.74 1022.22 1022.44 1022.62 1022.96 1023.00 1023.35 1023.60 1023.74 1023.89 1024.04 1024.34 1024.71 1024.88 1025.05 1025.33 1025.44 1025.63 1025.76 1025.90 1026.12 1026.59 1026.78 1027.31 1027.90
1014.80 1015.17 1016.09 1016.82 1017.37 1017.98 1018.53 1018.90 1019.38 1019.89 1020.45 1021.26 1021.39 1021.67 1021.79 1021.98 1022.09 1022.38 1022.56 1022.73 1022.90 1023.07 1023.24 1023.44 1023.72 1023.96 1024.18 1024.38 1024.63 1024.79 1024.97 1025.23 1025.39 1025.57 1025.82 1026.26 1026.49 1027.08
1013.77 1014.47 1014.92 1015.95 1016.59 1017.32 1017.59 1018.30 1018.73 1019.24 1019.58 1020.32 1020.71 1021.07 1021.34 1021.58 1021.99 1022.19 1022.32 1022.43 1022.32 1022.50 1022.68 1022.88 1023.06 1023.21 1023.40 1023.62 1023.84 1024.13 1024.38 1024.60 1024.82 1025.13 1025.25 1025.64 1026.15 1026.62
1013.10 1013.89 1014.21 1014.82 1015.49 1016.32 1016.89 1017.44 1018.13 1018.75 1019.28 1019.84 1020.33 1020.70 1020.94 1021.15 1021.44 1021.78 1022.08 1022.09 1022.16 1022.15 1022.32 1022.45 1022.66 1022.75 1022.82 1023.03 1023.29 1023.53 1023.66 1023.90 1024.17 1024.37 1024.79 1025.17 1025.63 1026.11
1012.12 1012.87 1013.42 1013.90 1014.86 1015.52 1015.96 1016.62 1017.36 1017.99 1018.66 1019.26 1019.77 1020.25 1020.53 1020.87 1020.82 1021.08 1021.45 1021.65 1021.70 1021.68 1022.01 1022.12 1022.25 1022.32 1022.41 1022.54 1022.72 1022.81 1023.03 1023.28 1023.45 1023.71 1024.10 1024.58 1025.09 1025.54
1011.08 1011.92 1012.61 1013.51 1014.23 1014.63 1015.12 1015.60 1016.11 1017.00 1017.66 1018.30 1018.79 1019.28 1019.34 1019.69 1020.06 1020.34 1020.80 1021.46 1021.79 1021.07 1021.60 1021.56 1021.71 1021.90 1021.96 1022.16 1022.17 1022.29 1022.52 1022.69 1022.88 1023.16 1023.53 1023.98 1024.57 1025.20
1010.10 1011.00 1011.91 1012.66 1013.40 1014.12 1014.55 1014.99 1015.54 1015.94 1016.30 1016.95 1017.52 1018.06 1018.29 1018.48 1019.00 1019.62 1019.99 1020.36 1020.47 1020.76 1021.17 1021.48 1021.62 1021.70 1021.68 1021.79 1021.87 1021.85 1022.05 1022.20 1022.43 1022.67 1023.09 1023.65 1024.22 1024.88
1009.24 1009.97 1010.61 1011.41 1012.31 1013.15 1013.80 1014.64 1015.11 1015.60 1015.83 1016.25 1016.81 1017.04 1017.43 1017.74 1018.09 1018.44 1019.05 1019.72 1020.24 1020.48 1020.67 1021.33 1021.45 1021.63 1021.74 1021.79 1021.87 1021.56 1021.60 1021.81 1022.02 1022.28 1022.74 1023.26 1023.91 1024.56
1008.70 1009.35 1009.87 1010.44 1011.27 1012.26 1013.12 1013.76 1014.38 1014.79 1015.13 1015.67 1016.03 1016.49 1016.91 1017.21 1017.65 1018.25 1019.06 1019.87 1020.21 1020.38 1020.51 1020.78 1021.43 1021.74 1021.96 1021.87 1021.85 1021.79 1021.70 1021.61 1021.77 1022.06 1022.50 1023.07 1023.60 1024.09
1008.19 1008.89 1009.52 1009.97 1010.70 1011.63 1012.46 1013.18 1013.74 1014.20 1014.86 1015.52 1015.99 1016.33 1016.62 1016.89 1017.28 1017.64 1018.26 1019.01 1019.62 1020.26 1020.11 1020.44 1021.39 1021.74 1022.11 1022.04 1022.01 1021.95 1022.01 1021.77 1021.62 1021.89 1022.29 1022.69 1023.11 1023.70
1007.67 1008.55 1009.26 1009.76 1010.40 1011.13 1011.78 1012.37 1012.76 1013.50 1014.24 1014.75 1015.31 1015.77 1016.22 1016.56 1016.92 1017.25 1017.60 1018.08 1018.76 1019.10 1019.25 1019.70 1020.94 1021.52 1021.74 1021.99 1022.08 1022.13 1022.17 1022.05 1021.96 1021.67 1021.85 1022.15 1022.61 1023.34
1007.10 1007.96 1008.61 1009.35 1010.05 1010.75 1011.40 1011.91 1012.42 1013.07 1013.70 1014.32 1014.98 1015.52 1015.93 1016.35 1016.91 1017.35 1017.71 1018.19 1018.45 1018.52 1018.86 1019.36 1020.14 1020.56 1021.22 1021.92 1022.08 1022.24 1022.26 1022.26 1022.26 1022.15 1022.14 1022.22 1022.52 1022.99
1006.90 1007.32 1008.16 1008.88 1009.69 1010.44 1010.95 1011.55 1012.13 1012.71 1013.36 1014.07 1014.74 1015.37 1015.76 1016.15 1017.11 1017.72 1018.26 1018.59 1018.96 1019.22 1019.35 1019.56 1019.70 1020.25 1020.79 1021.16 1021.56 1021.95 1022.10 1022.19 1022.32 1022.40 1022.56 1022.69 1022.88 1023.10
1007.09 1007.59 1008.18 1008.95 1009.62 1010.16 1010.76 1011.27 1011.76 1012.26 1012.85 1013.62 1014.40 1015.25 1015.90 1016.45 1017.12 1017.49 1018.36 1018.70 1019.17 1019.95 1020.00 1019.88 1019.86 1020.02 1020.64 1021.01 1021.20 1021.64 1021.76 1021.99 1022.15 1022.31 1022.52 1022.79 1022.99 1023.15
1007.82 1008.47 1009.03 1009.58 1010.39 1010.79 1011.35 1011.64 1012.02 1012.44 1013.04 1013.80 1014.50 1015.21 1015.89 1016.49 1017.02 1017.44 1017.85 1018.50 1019.01 1019.62 1020.07 1020.29 1020.45 1020.48 1020.60 1020.74 1021.16 1021.27 1021.56 1021.93 1021.99 1022.27 1022.73 1022.92 1023.04 1023.14
1008.98 1009.81 1010.30 1010.60 1010.80 1011.49 1011.85 1012.42 1012.71 1012.96 1013.44 1013.91 1014.53 1015.11 1015.72 1016.28 1016.88 1017.54 1017.81 1018.16 1018.72 1019.40 1019.90 1020.44 1020.76 1020.99 1021.03 1021.04 1020.93 1021.03 1021.51 1021.81 1022.03 1022.28 1022.58 1022.95 1022.95 1022.73
1010.82 1011.41 1011.76 1011.96 1011.95 1012.34 1012.63 1012.98 1013.45 1013.68 1013.78 1014.40 1014.87 1015.42 1015.94 1016.53 1017.12 1017.44 1017.81 1018.27 1018.86 1019.36 1019.85 1020.30 1020.70 1020.82 1021.03 1021.15 1021.21 1021.00 1021.24 1021.70 1022.06 1022.38 1022.50 1022.70 1022.73 1022.37
1013.26 1013.38 1013.37 1013.37 1013.44 1013.41 1013.50 1013.83 1014.21 1014.37 1014.48 1014.97 1015.34 1015.76 1016.24 1016.67 1017.23 1017.76 1018.09 1018.27 1018.79 1019.38 1019.78 1020.11 1020.29 1020.46 1020.76 1021.03 1021.15 1021.36 1021.16 1021.73 1022.06 1022.30 1022.47 1022.51 1022.41 1022.15
1015.64 1015.21 1015.19 1015.04 1014.91 1014.73 1014.66 1014.64 1014.88 1015.12 1015.39 1015.59 1015.96 1016.36 1016.72 1017.01 1017.52 1017.85 1018.12 1018.38 1018.83 1019.31 1019.62 1019.85 1019.94 1020.04 1020.73 1021.06 1021.44 1021.48 1021.42 1021.35 1021.62 1021.90 1022.08 1022.34 1022.21 1022.08
1017.11 1017.11 1016.89 1016.59 1016.44 1016.32 1015.96 1015.78 1015.86 1016.05 1016.30 1016.39 1016.56 1016.89 1017.21 1017.34 1017.58 1017.85 1018.15 1018.52 1018.86 1019.23 1019.59 1019.86 1020.10 1020.48 1020.89 1021.10 1021.42 1021.59 1021.60 1021.62 1021.56 1021.54 1021.60 1021.59 1021.75 1021.60
1018.50 1018.50 1018.00 1017.88 1017.86 1017.65 1017.35 1017.14 1017.04 1017.08 1017.21 1017.19 1017.19 1017.35 1017.55 1017.76 1017.91 1018.07 1018.31 1018.58 1018.87 1019.25 1019.61 1020.08 1020.42 1020.68 1020.88 1021.05 1021.22 1021.34 1021.49 1021.60 1021.52 1021.47 1021.22 1020.88 1020.78 1020.74
Wind_Speed
12 11 9 7 6 5 4 5 6 5 4 4 4 6 5 5 8 9 10 12 16 17 16 17 14 10 12 16 18 14 17 17 18 20 18 17 15 12
9 12 11 7 9 6 5 4 4 5 5 4 5 5 8 6 8 9 9 11 15 16 16 15 15 13 11 10 13 17 18 18 19 21 21 19 17 14
14 13 13 10 8 7 5 4 5 5 4 4 4 5 6 7 5 6 6 7 6 14 16 17 17 16 15 13 15 12 13 17 19 20 24 22 18 16
16 14 12 8 11 9 7 9 9 6 5 6 5 4 6 6 7 9 8 7 7 11 16 15 15 16 16 16 16 16 13 13 15 19 23 20 19 17
14 15 16 12 11 8 9 8 6 5 5 4 5 4 4 2 3 2 4 5 4 8 12 13 16 15 15 14 15 16 15 14 15 14 15 15 17 15
16 15 15 15 16 12 11 11 7 7 6 6 3 3 3 3 3 7 5 3 5 4 5 6 7 11 12 12 12 14 16 16 17 16 16 15 14 15
16 16 15 14 16 14 11 11 10 9 6 7 5 3 4 3 7 4 6 3 5 4 3 4 4 4 5 10 10 13 14 15 16 17 19 19 17 17
16 15 14 16 17 16 16 15 15 13 12 8 9 8 12 9 4 4 5 4 4 4 5 5 5 5 4 4 9 11 12 14 15 17 18 19 17 16
16 15 14 11 16 14 16 15 16 17 16 12 12 11 9 10 7 6 6 5 6 3 4 3 3 4 2 2 8 11 11 13 14 15 16 18 18 17
16 16 16 14 15 13 12 13 12 12 12 8 11 10 7 6 9 8 8 5 2 2 3 4 2 3 0 1 4 5 9 11 13 15 18 18 16 15
11 12 13 13 15 16 13 12 11 10 9 13 9 8 9 10 7 5 5 4 3 4 4 4 2 1 1 2 2 3 6 7 13 15 16 14 14 15
8 8 13 12 16 18 13 11 11 10 9 6 6 6 8 8 11 8 6 6 3 1 5 5 3 3 2 1 2 1 2 3 7 14 15 15 16 5
8 7 7 13 16 18 17 11 11 8 10 8 7 6 6 6 5 5 6 5 4 3 4 4 3 2 1 1 1 1 1 1 2 5 15 13 15 10
9 7 8 16 15 16 15 12 12 11 6 6 5 4 5 5 3 4 5 4 3 2 7 4 3 4 3 2 2 0 1 1 0 1 2 5 12 14
7 10 12 16 15 12 14 14 14 6 6 4 5 3 2 4 7 5 5 7 6 5 4 2 3 3 3 2 2 2 3 2 3 3 2 3 3 2
7 7 7 7 7 7 8 9 7 7 6 6 4 4 4 4 3 3 2 2 3 2 4 4 3 4 3 2 2 3 3 3 3 3 3 2 2 2
9 6 5 5 5 5 4 4 4 4 4 3 5 5 4 4 3 2 3 2 2 3 2 2 4 3 2 3 2 2 3 2 2 3 2 1 2 3
11 8 7 6 7 6 6 5 4 6 4 5 5 5 5 5 5 2 2 2 3 2 3 2 2 1 1 1 3 3 2 2 2 3 2 2 2 3
12 10 8 8 7 6 6 5 4 4 5 5 5 5 5 4 5 3 4 3 2 2 2 3 2 2 2 2 1 3 2 2 3 2 2 3 3 2
11 10 9 8 7 7 6 5 5 5 5 5 4 4 4 4 4 3 3 3 3 3 3 2 2 3 3 2 1 1 3 3 2 2 2 1 3 10
9 10 9 9 8 8 7 6 6 5 5 5 4 4 3 3 3 3 3 4 4 2 2 2 3 5 3 2 2 2 1 4 3 3 2 2 2 2
9 9 8 8 8 8 7 7 7 6 5 5 4 4 3 2 3 3 3 2 2 2 2 2 2 3 2 2 2 1 1 1 2 6 7 6 4 3
9 8 8 8 7 7 7 6 6 6 6 6 5 4 3 3 2 2 1 2 2 2 2 2 1 1 1 2 3 2 3 3 2 2 2 12 15 17
Wind_Direction
186 187 197 199 194 183 164 151 148 173 206 213 181 197 198 186 199 201 210 208 215 220 228 235 248 233 224 230 229 232 238 227 217 213 217 221 221 223
183 189 199 193 199 192 176 159 154 157 189 177 219 180 196 196 203 199 202 197 209 213 224 230 238 244 232 230 234 233 229 226 220 213 217 217 220 224
196 181 196 186 192 192 175 166 170 153 163 218 203 205 182 192 201 208 200 201 210 215 221 226 230 236 236 232 237 233 239 234 226 213 223 218 214 219
199 190 191 178 188 186 184 189 190 179 148 185 198 198 190 196 200 201 207 212 206 215 222 226 225 226 229 234 233 231 227 231 224 228 218 224 213 211
194 195 197 184 190 191 189 188 186 181 192 148 197 182 198 163 168 197 199 221 211 209 221 224 227 223 225 228 231 230 226 225 228 228 227 207 212 210
193 201 199 196 206 192 190 191 180 176 180 201 176 182 177 193 174 206 220 208 216 198 221 220 216 226 230 230 230 229 229 226 227 218 204 192 197 205
197 200 198 193 201 198 189 192 183 194 184 200 202 167 189 180 206 181 212 183 225 192 207 219 215 221 224 235 242 233 227 224 219 211 201 195 193 194
193 196 197 195 202 197 194 195 190 191 198 199 214 216 223 213 170 181 189 176 236 191 190 246 178 227 215 215 226 232 221 224 215 209 204 197 187 185
192 189 192 192 198 198 201 195 198 194 197 195 207 211 218 203 183 185 192 195 208 183 149 237 185 237 204 254 257 240 230 225 217 209 194 186 184 188
194 191 187 183 187 185 190 200 207 205 200 192 208 217 211 173 186 201 205 196 67 140 148 201 167 231 360 251 343 314 232 225 215 197 190 185 181 192
185 186 188 180 176 180 186 196 200 205 204 203 191 187 179 177 176 134 170 153 195 217 200 152 190 200 291 265 238 2 16 254 206 196 189 185 190 196
169 170 175 174 168 179 190 189 195 201 189 187 207 202 192 194 180 194 172 185 144 165 211 163 150 158 301 208 305 315 319 330 241 197 199 206 199 173
173 172 176 172 173 182 193 192 200 172 192 191 199 194 187 189 187 187 178 168 162 203 185 126 155 144 150 263 322 295 239 299 335 222 214 199 174 157
176 179 180 180 179 185 188 187 170 166 169 177 173 177 180 178 147 128 111 96 62 126 163 132 152 151 155 156 239 88 252 262 294 108 83 169 181 178
180 167 169 176 179 186 186 182 176 172 165 155 169 172 156 126 114 98 76 85 71 47 55 99 125 136 140 167 162 189 158 207 197 179 176 172 165 127
130 151 168 154 170 166 167 179 177 171 171 174 141 110 113 123 121 119 124 130 105 97 42 44 112 136 142 174 158 172 181 189 172 181 162 171 181 191
94 83 92 98 101 92 81 84 89 100 121 117 139 138 131 137 113 129 112 127 131 147 139 63 42 62 66 149 183 181 163 184 173 146 139 197 233 216
67 65 65 72 89 92 94 86 70 97 83 106 109 121 132 136 129 117 101 122 120 139 129 125 130 116 57 282 216 153 153 165 155 151 135 162 264 234
56 52 52 51 58 67 70 71 78 70 91 87 100 107 110 115 135 130 118 114 105 104 118 138 163 176 145 217 261 229 153 158 149 180 178 184 208 274
40 43 43 40 44 53 66 75 72 66 71 84 87 95 111 116 112 130 148 128 128 144 148 152 174 181 177 189 193 278 194 146 160 175 205 217 257 274
28 34 32 33 35 37 46 56 62 68 73 82 79 84 88 107 125 133 138 148 140 138 179 183 194 188 110 102 36 319 302 216 166 166 168 159 203 272
26 27 27 30 31 27 32 38 52 53 53 62 73 81 87 96 111 119 129 136 155 166 155 97 106 109 121 170 201 191 341 14 274 250 221 211 172 231
21 17 24 25 22 21 24 29 39 44 37 39 46 47 46 49 53 65 114 151 143 147 133 137 125 115 183 188 198 183 187 195 198 227 254 239 244 252